Year,Month,Day,Hour,Minute,Value (Times are PST for temperature in C)
2018,04,27,00,00,10.40
2018,04,27,00,01,10.40
2018,04,27,00,02,10.40
2018,04,27,00,03,10.50
2018,04,27,00,04,10.60
2018,04,27,00,05,10.60
2018,04,27,00,06,10.50
2018,04,27,00,07,10.40
2018,04,27,00,08,10.40
2018,04,27,00,09,10.40
2018,04,27,00,10,10.50
2018,04,27,00,11,10.50
2018,04,27,00,12,10.40
2018,04,27,00,13,10.40
2018,04,27,00,14,10.40
2018,04,27,00,15,10.40
2018,04,27,00,16,10.40
2018,04,27,00,17,10.50
2018,04,27,00,18,10.50
2018,04,27,00,19,10.40
2018,04,27,00,20,10.30
2018,04,27,00,21,10.40
2018,04,27,00,22,10.40
2018,04,27,00,23,10.40
2018,04,27,00,24,10.40
2018,04,27,00,25,10.40
2018,04,27,00,26,10.40
2018,04,27,00,27,10.30
2018,04,27,00,28,10.40
2018,04,27,00,29,10.50
2018,04,27,00,30,10.50
2018,04,27,00,31,10.40
2018,04,27,00,32,10.40
2018,04,27,00,33,10.30
2018,04,27,00,34,10.30
2018,04,27,00,35,10.30
2018,04,27,00,36,10.30
2018,04,27,00,37,10.40
2018,04,27,00,38,10.40
2018,04,27,00,39,10.40
2018,04,27,00,40,10.40
2018,04,27,00,41,10.40
2018,04,27,00,42,10.50
2018,04,27,00,43,10.50
2018,04,27,00,44,10.50
2018,04,27,00,45,10.60
2018,04,27,00,46,10.70
2018,04,27,00,47,10.70
2018,04,27,00,48,10.70
2018,04,27,00,49,10.60
2018,04,27,00,50,10.60
2018,04,27,00,51,10.50
2018,04,27,00,52,10.40
2018,04,27,00,53,10.40
2018,04,27,00,54,10.40
2018,04,27,00,55,10.40
2018,04,27,00,56,10.40
2018,04,27,00,57,10.40
2018,04,27,00,58,10.40
2018,04,27,00,59,10.50
2018,04,27,01,00,10.50
2018,04,27,01,01,10.50
2018,04,27,01,02,10.50
2018,04,27,01,03,10.50
2018,04,27,01,04,10.50
2018,04,27,01,05,10.50
2018,04,27,01,06,10.50
2018,04,27,01,07,10.40
2018,04,27,01,08,10.40
2018,04,27,01,09,10.40
2018,04,27,01,10,10.30
2018,04,27,01,11,10.30
2018,04,27,01,12,10.30
2018,04,27,01,13,10.30
2018,04,27,01,14,10.40
2018,04,27,01,15,10.40
2018,04,27,01,16,10.50
2018,04,27,01,17,10.60
2018,04,27,01,18,10.60
2018,04,27,01,19,10.60
2018,04,27,01,20,10.50
2018,04,27,01,21,10.50
2018,04,27,01,22,10.40
2018,04,27,01,23,10.30
2018,04,27,01,24,10.40
2018,04,27,01,25,10.40
2018,04,27,01,26,10.50
2018,04,27,01,27,10.60
2018,04,27,01,28,10.60
2018,04,27,01,29,10.70
2018,04,27,01,30,10.70
2018,04,27,01,31,10.60
2018,04,27,01,32,10.40
2018,04,27,01,33,10.40
2018,04,27,01,34,10.30
2018,04,27,01,35,10.30
2018,04,27,01,36,10.30
2018,04,27,01,37,10.30
2018,04,27,01,38,10.30
2018,04,27,01,39,10.30
2018,04,27,01,40,10.30
2018,04,27,01,41,10.30
2018,04,27,01,42,10.30
2018,04,27,01,43,10.30
2018,04,27,01,44,10.30
2018,04,27,01,45,10.30
2018,04,27,01,46,10.30
2018,04,27,01,47,10.40
2018,04,27,01,48,10.40
2018,04,27,01,49,10.40
2018,04,27,01,50,10.30
2018,04,27,01,51,10.30
2018,04,27,01,52,10.30
2018,04,27,01,53,10.20
2018,04,27,01,54,10.20
2018,04,27,01,55,10.20
2018,04,27,01,56,10.20
2018,04,27,01,57,10.20
2018,04,27,01,58,10.20
2018,04,27,01,59,10.20
2018,04,27,02,00,10.20
2018,04,27,02,01,10.20
2018,04,27,02,02,10.30
2018,04,27,02,03,10.30
2018,04,27,02,04,10.30
2018,04,27,02,05,10.30
2018,04,27,02,06,10.30
2018,04,27,02,07,10.20
2018,04,27,02,08,10.20
2018,04,27,02,09,10.20
2018,04,27,02,10,10.20
2018,04,27,02,11,10.20
2018,04,27,02,12,10.10
2018,04,27,02,13,10.20
2018,04,27,02,14,10.20
2018,04,27,02,15,10.20
2018,04,27,02,16,10.30
2018,04,27,02,17,10.20
2018,04,27,02,18,10.20
2018,04,27,02,19,10.20
2018,04,27,02,20,10.20
2018,04,27,02,21,10.20
2018,04,27,02,22,10.20
2018,04,27,02,23,10.20
2018,04,27,02,24,10.10
2018,04,27,02,25,10.10
2018,04,27,02,26,10.10
2018,04,27,02,27,10.10
2018,04,27,02,28,10.10
2018,04,27,02,29,10.10
2018,04,27,02,30,10.00
2018,04,27,02,31,10.00
2018,04,27,02,32,9.90
2018,04,27,02,33,9.90
2018,04,27,02,34,9.90
2018,04,27,02,35,9.80
2018,04,27,02,36,9.80
2018,04,27,02,37,9.80
2018,04,27,02,38,9.70
2018,04,27,02,39,9.70
2018,04,27,02,40,9.70
2018,04,27,02,41,9.70
2018,04,27,02,42,9.70
2018,04,27,02,43,9.70
2018,04,27,02,44,9.70
2018,04,27,02,45,9.70
2018,04,27,02,46,9.70
2018,04,27,02,47,9.60
2018,04,27,02,48,9.60
2018,04,27,02,49,9.60
2018,04,27,02,50,9.60
2018,04,27,02,51,9.60
2018,04,27,02,52,9.60
2018,04,27,02,53,9.60
2018,04,27,02,54,9.60
2018,04,27,02,55,9.70
2018,04,27,02,56,9.70
2018,04,27,02,57,9.70
2018,04,27,02,58,9.70
2018,04,27,02,59,9.70
2018,04,27,03,00,9.60
2018,04,27,03,01,9.60
2018,04,27,03,02,9.60
2018,04,27,03,03,9.60
2018,04,27,03,04,9.60
2018,04,27,03,05,9.60
2018,04,27,03,06,9.60
2018,04,27,03,07,9.60
2018,04,27,03,08,9.60
2018,04,27,03,09,9.60
2018,04,27,03,10,9.50
2018,04,27,03,11,9.50
2018,04,27,03,12,9.40
2018,04,27,03,13,9.40
2018,04,27,03,14,9.40
2018,04,27,03,15,9.40
2018,04,27,03,16,9.40
2018,04,27,03,17,9.30
2018,04,27,03,18,9.30
2018,04,27,03,19,9.40
2018,04,27,03,20,9.50
2018,04,27,03,21,9.50
2018,04,27,03,22,9.50
2018,04,27,03,23,9.50
2018,04,27,03,24,9.50
2018,04,27,03,25,9.50
2018,04,27,03,26,9.50
2018,04,27,03,27,9.50
2018,04,27,03,28,9.50
2018,04,27,03,29,9.40
2018,04,27,03,30,9.40
2018,04,27,03,31,9.40
2018,04,27,03,32,9.40
2018,04,27,03,33,9.40
2018,04,27,03,34,9.40
2018,04,27,03,35,9.40
2018,04,27,03,36,9.30
2018,04,27,03,37,9.30
2018,04,27,03,38,9.30
2018,04,27,03,39,9.40
2018,04,27,03,40,9.40
2018,04,27,03,41,9.50
2018,04,27,03,42,9.50
2018,04,27,03,43,9.50
2018,04,27,03,44,9.50
2018,04,27,03,45,9.40
2018,04,27,03,46,9.40
2018,04,27,03,47,9.40
2018,04,27,03,48,9.40
2018,04,27,03,49,9.40
2018,04,27,03,50,9.40
2018,04,27,03,51,9.40
2018,04,27,03,52,9.30
2018,04,27,03,53,9.30
2018,04,27,03,54,9.30
2018,04,27,03,55,9.30
2018,04,27,03,56,9.30
2018,04,27,03,57,9.20
2018,04,27,03,58,9.20
2018,04,27,03,59,9.20
2018,04,27,04,00,9.20
2018,04,27,04,01,9.20
2018,04,27,04,02,9.20
2018,04,27,04,03,9.20
2018,04,27,04,04,9.20
2018,04,27,04,05,9.20
2018,04,27,04,06,9.10
2018,04,27,04,07,9.10
2018,04,27,04,08,9.10
2018,04,27,04,09,9.10
2018,04,27,04,10,9.10
2018,04,27,04,11,9.10
2018,04,27,04,12,9.10
2018,04,27,04,13,9.10
2018,04,27,04,14,9.10
2018,04,27,04,15,9.10
2018,04,27,04,16,9.20
2018,04,27,04,17,9.20
2018,04,27,04,18,9.30
2018,04,27,04,19,9.20
2018,04,27,04,20,9.20
2018,04,27,04,21,9.20
2018,04,27,04,22,9.30
2018,04,27,04,23,9.20
2018,04,27,04,24,9.20
2018,04,27,04,25,9.10
2018,04,27,04,26,9.10
2018,04,27,04,27,9.20
2018,04,27,04,28,9.10
2018,04,27,04,29,9.10
2018,04,27,04,30,9.10
2018,04,27,04,31,9.10
2018,04,27,04,32,9.10
2018,04,27,04,33,9.10
2018,04,27,04,34,9.00
2018,04,27,04,35,8.90
2018,04,27,04,36,8.80
2018,04,27,04,37,8.80
2018,04,27,04,38,8.80
2018,04,27,04,39,8.80
2018,04,27,04,40,8.90
2018,04,27,04,41,8.90
2018,04,27,04,42,8.90
2018,04,27,04,43,8.90
2018,04,27,04,44,8.90
2018,04,27,04,45,8.80
2018,04,27,04,46,8.80
2018,04,27,04,47,8.80
2018,04,27,04,48,8.80
2018,04,27,04,49,8.70
2018,04,27,04,50,8.70
2018,04,27,04,51,8.70
2018,04,27,04,52,8.70
2018,04,27,04,53,8.70
2018,04,27,04,54,8.70
2018,04,27,04,55,8.70
2018,04,27,04,56,8.70
2018,04,27,04,57,8.70
2018,04,27,04,58,8.70
2018,04,27,04,59,8.60
2018,04,27,05,00,8.60
2018,04,27,05,01,8.50
2018,04,27,05,02,8.50
2018,04,27,05,03,8.50
2018,04,27,05,04,8.50
2018,04,27,05,05,8.40
2018,04,27,05,06,8.40
2018,04,27,05,07,8.40
2018,04,27,05,08,8.40
2018,04,27,05,09,8.40
2018,04,27,05,10,8.30
2018,04,27,05,11,8.30
2018,04,27,05,12,8.30
2018,04,27,05,13,8.30
2018,04,27,05,14,8.30
2018,04,27,05,15,8.30
2018,04,27,05,16,8.30
2018,04,27,05,17,8.30
2018,04,27,05,18,8.30
2018,04,27,05,19,8.30
2018,04,27,05,20,8.20
2018,04,27,05,21,8.20
2018,04,27,05,22,8.30
2018,04,27,05,23,8.30
2018,04,27,05,24,8.30
2018,04,27,05,25,8.30
2018,04,27,05,26,8.30
2018,04,27,05,27,8.30
2018,04,27,05,28,8.30
2018,04,27,05,29,8.40
2018,04,27,05,30,8.40
2018,04,27,05,31,8.30
2018,04,27,05,32,8.30
2018,04,27,05,33,8.30
2018,04,27,05,34,8.30
2018,04,27,05,35,8.30
2018,04,27,05,36,8.30
2018,04,27,05,37,8.30
2018,04,27,05,38,8.30
2018,04,27,05,39,8.30
2018,04,27,05,40,8.30
2018,04,27,05,41,8.30
2018,04,27,05,42,8.30
2018,04,27,05,43,8.30
2018,04,27,05,44,8.30
2018,04,27,05,45,8.30
2018,04,27,05,46,8.30
2018,04,27,05,47,8.30
2018,04,27,05,48,8.20
2018,04,27,05,49,8.20
2018,04,27,05,50,8.20
2018,04,27,05,51,8.20
2018,04,27,05,52,8.30
2018,04,27,05,53,8.30
2018,04,27,05,54,8.40
2018,04,27,05,55,8.50
2018,04,27,05,56,8.50
2018,04,27,05,57,8.40
2018,04,27,05,58,8.40
2018,04,27,05,59,8.40
2018,04,27,06,00,8.40
2018,04,27,06,01,8.30
2018,04,27,06,02,8.30
2018,04,27,06,03,8.30
2018,04,27,06,04,8.30
2018,04,27,06,05,8.30
2018,04,27,06,06,8.30
2018,04,27,06,07,8.30
2018,04,27,06,08,8.30
2018,04,27,06,09,8.30
2018,04,27,06,10,8.30
2018,04,27,06,11,8.30
2018,04,27,06,12,8.20
2018,04,27,06,13,8.10
2018,04,27,06,14,8.10
2018,04,27,06,15,8.10
2018,04,27,06,16,8.20
2018,04,27,06,17,8.20
2018,04,27,06,18,8.20
2018,04,27,06,19,8.20
2018,04,27,06,20,8.20
2018,04,27,06,21,8.20
2018,04,27,06,22,8.20
2018,04,27,06,23,8.10
2018,04,27,06,24,8.10
2018,04,27,06,25,8.10
2018,04,27,06,26,8.10
2018,04,27,06,27,8.20
2018,04,27,06,28,8.20
2018,04,27,06,29,8.20
2018,04,27,06,30,8.20
2018,04,27,06,31,8.20
2018,04,27,06,32,8.20
2018,04,27,06,33,8.20
2018,04,27,06,34,8.20
2018,04,27,06,35,8.20
2018,04,27,06,36,8.20
2018,04,27,06,37,8.20
2018,04,27,06,38,8.20
2018,04,27,06,39,8.20
2018,04,27,06,40,8.20
2018,04,27,06,41,8.30
2018,04,27,06,42,8.30
2018,04,27,06,43,8.30
2018,04,27,06,44,8.30
2018,04,27,06,45,8.30
2018,04,27,06,46,8.30
2018,04,27,06,47,8.30
2018,04,27,06,48,8.30
2018,04,27,06,49,8.30
2018,04,27,06,50,8.40
2018,04,27,06,51,8.40
2018,04,27,06,52,8.40
2018,04,27,06,53,8.40
2018,04,27,06,54,8.30
2018,04,27,06,55,8.40
2018,04,27,06,56,8.40
2018,04,27,06,57,8.40
2018,04,27,06,58,8.40
2018,04,27,06,59,8.40
2018,04,27,07,00,8.40
2018,04,27,07,01,8.40
2018,04,27,07,02,8.40
2018,04,27,07,03,8.40
2018,04,27,07,04,8.50
2018,04,27,07,05,8.50
2018,04,27,07,06,8.50
2018,04,27,07,07,8.50
2018,04,27,07,08,8.50
2018,04,27,07,09,8.40
2018,04,27,07,10,8.40
2018,04,27,07,11,8.40
2018,04,27,07,12,8.40
2018,04,27,07,13,8.40
2018,04,27,07,14,8.40
2018,04,27,07,15,8.50
2018,04,27,07,16,8.50
2018,04,27,07,17,8.50
2018,04,27,07,18,8.50
2018,04,27,07,19,8.50
2018,04,27,07,20,8.50
2018,04,27,07,21,8.50
2018,04,27,07,22,8.50
2018,04,27,07,23,8.50
2018,04,27,07,24,8.50
2018,04,27,07,25,8.60
2018,04,27,07,26,8.60
2018,04,27,07,27,8.60
2018,04,27,07,28,8.60
2018,04,27,07,29,8.60
2018,04,27,07,30,8.70
2018,04,27,07,31,8.70
2018,04,27,07,32,8.80
2018,04,27,07,33,8.80
2018,04,27,07,34,8.90
2018,04,27,07,35,8.90
2018,04,27,07,36,9.00
2018,04,27,07,37,9.10
2018,04,27,07,38,9.20
2018,04,27,07,39,9.20
2018,04,27,07,40,9.30
2018,04,27,07,41,9.30
2018,04,27,07,42,9.40
2018,04,27,07,43,9.40
2018,04,27,07,44,9.50
2018,04,27,07,45,9.60
2018,04,27,07,46,9.60
2018,04,27,07,47,9.70
2018,04,27,07,48,9.70
2018,04,27,07,49,9.80
2018,04,27,07,50,9.90
2018,04,27,07,51,9.90
2018,04,27,07,52,10.00
2018,04,27,07,53,10.00
2018,04,27,07,54,10.10
2018,04,27,07,55,10.10
2018,04,27,07,56,10.20
2018,04,27,07,57,10.20
2018,04,27,07,58,10.20
2018,04,27,07,59,10.30
2018,04,27,08,00,10.30
2018,04,27,08,01,10.40
2018,04,27,08,02,10.40
2018,04,27,08,03,10.40
2018,04,27,08,04,10.50
2018,04,27,08,05,10.50
2018,04,27,08,06,10.60
2018,04,27,08,07,10.60
2018,04,27,08,08,10.70
2018,04,27,08,09,10.70
2018,04,27,08,10,10.80
2018,04,27,08,11,10.80
2018,04,27,08,12,10.90
2018,04,27,08,13,11.00
2018,04,27,08,14,11.00
2018,04,27,08,15,11.10
2018,04,27,08,16,11.20
2018,04,27,08,17,11.30
2018,04,27,08,18,11.30
2018,04,27,08,19,11.40
2018,04,27,08,20,11.40
2018,04,27,08,21,11.50
2018,04,27,08,22,11.60
2018,04,27,08,23,11.60
2018,04,27,08,24,11.70
2018,04,27,08,25,11.70
2018,04,27,08,26,11.80
2018,04,27,08,27,11.80
2018,04,27,08,28,11.90
2018,04,27,08,29,11.90
2018,04,27,08,30,12.00
2018,04,27,08,31,12.10
2018,04,27,08,32,12.10
2018,04,27,08,33,12.20
2018,04,27,08,34,12.20
2018,04,27,08,35,12.30
2018,04,27,08,36,12.30
2018,04,27,08,37,12.40
2018,04,27,08,38,12.40
2018,04,27,08,39,12.50
2018,04,27,08,40,12.60
2018,04,27,08,41,12.60
2018,04,27,08,42,12.70
2018,04,27,08,43,12.80
2018,04,27,08,44,12.80
2018,04,27,08,45,12.90
2018,04,27,08,46,12.90
2018,04,27,08,47,13.00
2018,04,27,08,48,13.10
2018,04,27,08,49,13.10
2018,04,27,08,50,13.20
2018,04,27,08,51,13.20
2018,04,27,08,52,13.30
2018,04,27,08,53,13.30
2018,04,27,08,54,13.40
2018,04,27,08,55,13.40
2018,04,27,08,56,13.40
2018,04,27,08,57,13.40
2018,04,27,08,58,13.50
2018,04,27,08,59,13.50
2018,04,27,09,00,13.50
2018,04,27,09,01,13.50
2018,04,27,09,02,13.50
2018,04,27,09,03,13.50
2018,04,27,09,04,13.50
2018,04,27,09,05,13.50
2018,04,27,09,06,13.50
2018,04,27,09,07,13.60
2018,04,27,09,08,13.60
2018,04,27,09,09,13.60
2018,04,27,09,10,13.60
2018,04,27,09,11,13.60
2018,04,27,09,12,13.70
2018,04,27,09,13,13.70
2018,04,27,09,14,13.70
2018,04,27,09,15,13.80
2018,04,27,09,16,13.80
2018,04,27,09,17,13.80
2018,04,27,09,18,13.90
2018,04,27,09,19,13.90
2018,04,27,09,20,13.90
2018,04,27,09,21,13.90
2018,04,27,09,22,13.90
2018,04,27,09,23,13.90
2018,04,27,09,24,13.90
2018,04,27,09,25,13.90
2018,04,27,09,26,13.90
2018,04,27,09,27,13.90
2018,04,27,09,28,13.90
2018,04,27,09,29,13.90
2018,04,27,09,30,13.90
2018,04,27,09,31,14.00
2018,04,27,09,32,14.00
2018,04,27,09,33,14.10
2018,04,27,09,34,14.20
2018,04,27,09,35,14.20
2018,04,27,09,36,14.30
2018,04,27,09,37,14.40
2018,04,27,09,38,14.40
2018,04,27,09,39,14.40
2018,04,27,09,40,14.40
2018,04,27,09,41,14.40
2018,04,27,09,42,14.40
2018,04,27,09,43,14.50
2018,04,27,09,44,14.50
2018,04,27,09,45,14.50
2018,04,27,09,46,14.50
2018,04,27,09,47,14.50
2018,04,27,09,48,14.50
2018,04,27,09,49,14.60
2018,04,27,09,50,14.60
2018,04,27,09,51,14.60
2018,04,27,09,52,14.60
2018,04,27,09,53,14.60
2018,04,27,09,54,14.70
2018,04,27,09,55,14.70
2018,04,27,09,56,14.70
2018,04,27,09,57,14.70
2018,04,27,09,58,14.70
2018,04,27,09,59,14.70
2018,04,27,10,00,14.70
2018,04,27,10,01,14.70
2018,04,27,10,02,14.80
2018,04,27,10,03,14.80
2018,04,27,10,04,14.80
2018,04,27,10,05,14.80
2018,04,27,10,06,14.80
2018,04,27,10,07,14.70
2018,04,27,10,08,14.70
2018,04,27,10,09,14.70
2018,04,27,10,10,14.70
2018,04,27,10,11,14.70
2018,04,27,10,12,14.70
2018,04,27,10,13,14.80
2018,04,27,10,14,14.90
2018,04,27,10,15,14.90
2018,04,27,10,16,15.00
2018,04,27,10,17,15.00
2018,04,27,10,18,15.10
2018,04,27,10,19,15.10
2018,04,27,10,20,15.10
2018,04,27,10,21,15.20
2018,04,27,10,22,15.20
2018,04,27,10,23,15.30
2018,04,27,10,24,15.30
2018,04,27,10,25,15.30
2018,04,27,10,26,15.20
2018,04,27,10,27,15.20
2018,04,27,10,28,15.20
2018,04,27,10,29,15.20
2018,04,27,10,30,15.10
2018,04,27,10,31,15.10
2018,04,27,10,32,15.10
2018,04,27,10,33,15.00
2018,04,27,10,34,15.10
2018,04,27,10,35,15.10
2018,04,27,10,36,15.10
2018,04,27,10,37,15.20
2018,04,27,10,38,15.20
2018,04,27,10,39,15.20
2018,04,27,10,40,15.30
2018,04,27,10,41,15.30
2018,04,27,10,42,15.30
2018,04,27,10,43,15.40
2018,04,27,10,44,15.40
2018,04,27,10,45,15.40
2018,04,27,10,46,15.50
2018,04,27,10,47,15.50
2018,04,27,10,48,15.50
2018,04,27,10,49,15.60
2018,04,27,10,50,15.60
2018,04,27,10,51,15.70
2018,04,27,10,52,15.70
2018,04,27,10,53,15.80
2018,04,27,10,54,16.00
2018,04,27,10,55,16.10
2018,04,27,10,56,16.20
2018,04,27,10,57,16.30
2018,04,27,10,58,16.50
2018,04,27,10,59,16.60
2018,04,27,11,00,16.60
2018,04,27,11,01,16.70
2018,04,27,11,02,16.80
2018,04,27,11,03,16.80
2018,04,27,11,04,16.90
2018,04,27,11,05,16.90
2018,04,27,11,06,17.00
2018,04,27,11,07,17.10
2018,04,27,11,08,17.20
2018,04,27,11,09,17.20
2018,04,27,11,10,17.30
2018,04,27,11,11,17.30
2018,04,27,11,12,17.40
2018,04,27,11,13,17.40
2018,04,27,11,14,17.50
2018,04,27,11,15,17.50
2018,04,27,11,16,17.50
2018,04,27,11,17,17.50
2018,04,27,11,18,17.50
2018,04,27,11,19,17.50
2018,04,27,11,20,17.40
2018,04,27,11,21,17.40
2018,04,27,11,22,17.30
2018,04,27,11,23,17.40
2018,04,27,11,24,17.50
2018,04,27,11,25,17.60
2018,04,27,11,26,17.70
2018,04,27,11,27,17.80
2018,04,27,11,28,17.90
2018,04,27,11,29,18.00
2018,04,27,11,30,18.10
2018,04,27,11,31,18.10
2018,04,27,11,32,18.00
2018,04,27,11,33,17.80
2018,04,27,11,34,17.60
2018,04,27,11,35,17.50
2018,04,27,11,36,17.40
2018,04,27,11,37,17.30
2018,04,27,11,38,17.10
2018,04,27,11,39,17.00
2018,04,27,11,40,17.00
2018,04,27,11,41,16.90
2018,04,27,11,42,16.70
2018,04,27,11,43,16.60
2018,04,27,11,44,16.40
2018,04,27,11,45,16.30
2018,04,27,11,46,16.10
2018,04,27,11,47,16.00
2018,04,27,11,48,15.90
2018,04,27,11,49,15.90
2018,04,27,11,50,15.90
2018,04,27,11,51,15.90
2018,04,27,11,52,15.80
2018,04,27,11,53,15.90
2018,04,27,11,54,15.90
2018,04,27,11,55,15.90
2018,04,27,11,56,15.80
2018,04,27,11,57,15.80
2018,04,27,11,58,15.80
2018,04,27,11,59,15.70
2018,04,27,12,00,15.80
2018,04,27,12,01,15.80
2018,04,27,12,02,15.80
2018,04,27,12,03,15.80
2018,04,27,12,04,15.90
2018,04,27,12,05,15.90
2018,04,27,12,06,15.90
2018,04,27,12,07,15.80
2018,04,27,12,08,15.80
2018,04,27,12,09,15.80
2018,04,27,12,10,15.70
2018,04,27,12,11,15.70
2018,04,27,12,12,15.70
2018,04,27,12,13,15.70
2018,04,27,12,14,15.60
2018,04,27,12,15,15.60
2018,04,27,12,16,15.60
2018,04,27,12,17,15.60
2018,04,27,12,18,15.70
2018,04,27,12,19,15.80
2018,04,27,12,20,15.90
2018,04,27,12,21,16.00
2018,04,27,12,22,16.10
2018,04,27,12,23,16.20
2018,04,27,12,24,16.10
2018,04,27,12,25,16.00
2018,04,27,12,26,15.80
2018,04,27,12,27,15.70
2018,04,27,12,28,15.70
2018,04,27,12,29,15.70
2018,04,27,12,30,15.60
2018,04,27,12,31,15.70
2018,04,27,12,32,15.70
2018,04,27,12,33,15.70
2018,04,27,12,34,15.70
2018,04,27,12,35,15.70
2018,04,27,12,36,15.60
2018,04,27,12,37,15.60
2018,04,27,12,38,15.70
2018,04,27,12,39,15.70
2018,04,27,12,40,15.70
2018,04,27,12,41,15.80
2018,04,27,12,42,15.80
2018,04,27,12,43,15.80
2018,04,27,12,44,15.80
2018,04,27,12,45,15.80
2018,04,27,12,46,15.90
2018,04,27,12,47,16.00
2018,04,27,12,48,16.10
2018,04,27,12,49,16.10
2018,04,27,12,50,16.00
2018,04,27,12,51,15.90
2018,04,27,12,52,15.80
2018,04,27,12,53,15.70
2018,04,27,12,54,15.50
2018,04,27,12,55,15.30
2018,04,27,12,56,15.30
2018,04,27,12,57,15.30
2018,04,27,12,58,15.40
2018,04,27,12,59,15.30
2018,04,27,13,00,15.30
2018,04,27,13,01,15.30
2018,04,27,13,02,15.30
2018,04,27,13,03,15.40
2018,04,27,13,04,15.40
2018,04,27,13,05,15.40
2018,04,27,13,06,15.50
2018,04,27,13,07,15.50
2018,04,27,13,08,15.40
2018,04,27,13,09,15.40
2018,04,27,13,10,15.40
2018,04,27,13,11,15.40
2018,04,27,13,12,15.40
2018,04,27,13,13,15.40
2018,04,27,13,14,15.40
2018,04,27,13,15,15.50
2018,04,27,13,16,15.50
2018,04,27,13,17,15.60
2018,04,27,13,18,15.50
2018,04,27,13,19,15.50
2018,04,27,13,20,15.40
2018,04,27,13,21,15.40
2018,04,27,13,22,15.40
2018,04,27,13,23,15.40
2018,04,27,13,24,15.50
2018,04,27,13,25,15.50
2018,04,27,13,26,15.40
2018,04,27,13,27,15.40
2018,04,27,13,28,15.40
2018,04,27,13,29,15.40
2018,04,27,13,30,15.30
2018,04,27,13,31,15.30
2018,04,27,13,32,15.30
2018,04,27,13,33,15.30
2018,04,27,13,34,15.30
2018,04,27,13,35,15.30
2018,04,27,13,36,15.20
2018,04,27,13,37,15.20
2018,04,27,13,38,15.30
2018,04,27,13,39,15.30
2018,04,27,13,40,15.30
2018,04,27,13,41,15.30
2018,04,27,13,42,15.20
2018,04,27,13,43,15.20
2018,04,27,13,44,15.10
2018,04,27,13,45,15.10
2018,04,27,13,46,15.10
2018,04,27,13,47,15.10
2018,04,27,13,48,15.10
2018,04,27,13,49,15.20
2018,04,27,13,50,15.20
2018,04,27,13,51,15.20
2018,04,27,13,52,15.20
2018,04,27,13,53,15.20
2018,04,27,13,54,15.20
2018,04,27,13,55,15.30
2018,04,27,13,56,15.30
2018,04,27,13,57,15.30
2018,04,27,13,58,15.30
2018,04,27,13,59,15.30
2018,04,27,14,00,15.40
2018,04,27,14,01,15.40
2018,04,27,14,02,15.40
2018,04,27,14,03,15.30
2018,04,27,14,04,15.40
2018,04,27,14,05,15.40
2018,04,27,14,06,15.40
2018,04,27,14,07,15.40
2018,04,27,14,08,15.30
2018,04,27,14,09,15.20
2018,04,27,14,10,15.20
2018,04,27,14,11,15.30
2018,04,27,14,12,15.20
2018,04,27,14,13,15.20
2018,04,27,14,14,15.20
2018,04,27,14,15,15.20
2018,04,27,14,16,15.10
2018,04,27,14,17,15.10
2018,04,27,14,18,15.10
2018,04,27,14,19,15.00
2018,04,27,14,20,15.00
2018,04,27,14,21,14.90
2018,04,27,14,22,14.90
2018,04,27,14,23,14.90
2018,04,27,14,24,14.90
2018,04,27,14,25,14.80
2018,04,27,14,26,14.80
2018,04,27,14,27,14.80
2018,04,27,14,28,14.90
2018,04,27,14,29,15.00
2018,04,27,14,30,15.00
2018,04,27,14,31,15.00
2018,04,27,14,32,15.00
2018,04,27,14,33,15.00
2018,04,27,14,34,15.00
2018,04,27,14,35,14.90
2018,04,27,14,36,14.90
2018,04,27,14,37,14.90
2018,04,27,14,38,14.80
2018,04,27,14,39,14.80
2018,04,27,14,40,14.80
2018,04,27,14,41,14.80
2018,04,27,14,42,14.70
2018,04,27,14,43,14.80
2018,04,27,14,44,14.80
2018,04,27,14,45,14.80
2018,04,27,14,46,14.90
2018,04,27,14,47,14.90
2018,04,27,14,48,14.90
2018,04,27,14,49,14.90
2018,04,27,14,50,14.90
2018,04,27,14,51,15.00
2018,04,27,14,52,15.10
2018,04,27,14,53,15.10
2018,04,27,14,54,15.10
2018,04,27,14,55,15.10
2018,04,27,14,56,15.10
2018,04,27,14,57,15.00
2018,04,27,14,58,15.00
2018,04,27,14,59,15.00
2018,04,27,15,00,14.90
2018,04,27,15,01,14.90
2018,04,27,15,02,14.80
2018,04,27,15,03,14.80
2018,04,27,15,04,14.80
2018,04,27,15,05,14.80
2018,04,27,15,06,14.80
2018,04,27,15,07,14.70
2018,04,27,15,08,14.70
2018,04,27,15,09,14.70
2018,04,27,15,10,14.60
2018,04,27,15,11,14.60
2018,04,27,15,12,14.60
2018,04,27,15,13,14.60
2018,04,27,15,14,14.60
2018,04,27,15,15,14.60
2018,04,27,15,16,14.60
2018,04,27,15,17,14.60
2018,04,27,15,18,14.60
2018,04,27,15,19,14.60
2018,04,27,15,20,14.60
2018,04,27,15,21,14.60
2018,04,27,15,22,14.60
2018,04,27,15,23,14.50
2018,04,27,15,24,14.60
2018,04,27,15,25,14.50
2018,04,27,15,26,14.50
2018,04,27,15,27,14.50
2018,04,27,15,28,14.50
2018,04,27,15,29,14.50
2018,04,27,15,30,14.40
2018,04,27,15,31,14.40
2018,04,27,15,32,14.40
2018,04,27,15,33,14.50
2018,04,27,15,34,14.60
2018,04,27,15,35,14.70
2018,04,27,15,36,14.70
2018,04,27,15,37,14.60
2018,04,27,15,38,14.60
2018,04,27,15,39,14.60
2018,04,27,15,40,14.60
2018,04,27,15,41,14.60
2018,04,27,15,42,14.60
2018,04,27,15,43,14.60
2018,04,27,15,44,14.60
2018,04,27,15,45,14.60
2018,04,27,15,46,14.70
2018,04,27,15,47,14.60
2018,04,27,15,48,14.60
2018,04,27,15,49,14.60
2018,04,27,15,50,14.60
2018,04,27,15,51,14.60
2018,04,27,15,52,14.50
2018,04,27,15,53,14.40
2018,04,27,15,54,14.40
2018,04,27,15,55,14.40
2018,04,27,15,56,14.40
2018,04,27,15,57,14.40
2018,04,27,15,58,14.40
2018,04,27,15,59,14.40
2018,04,27,16,00,14.40
2018,04,27,16,01,14.40
2018,04,27,16,02,14.50
2018,04,27,16,03,14.50
2018,04,27,16,04,14.50
2018,04,27,16,05,14.60
2018,04,27,16,06,14.60
2018,04,27,16,07,14.70
2018,04,27,16,08,14.70
2018,04,27,16,09,14.70
2018,04,27,16,10,14.70
2018,04,27,16,11,14.80
2018,04,27,16,12,14.80
2018,04,27,16,13,14.80
2018,04,27,16,14,14.90
2018,04,27,16,15,14.90
2018,04,27,16,16,14.90
2018,04,27,16,17,14.90
2018,04,27,16,18,14.90
2018,04,27,16,19,14.90
2018,04,27,16,20,15.00
2018,04,27,16,21,15.10
2018,04,27,16,22,15.00
2018,04,27,16,23,15.00
2018,04,27,16,24,15.00
2018,04,27,16,25,15.10
2018,04,27,16,26,15.10
2018,04,27,16,27,15.20
2018,04,27,16,28,15.20
2018,04,27,16,29,15.30
2018,04,27,16,30,15.30
2018,04,27,16,31,15.30
2018,04,27,16,32,15.30
2018,04,27,16,33,15.30
2018,04,27,16,34,15.30
2018,04,27,16,35,15.30
2018,04,27,16,36,15.30
2018,04,27,16,37,15.20
2018,04,27,16,38,15.30
2018,04,27,16,39,15.30
2018,04,27,16,40,15.30
2018,04,27,16,41,15.30
2018,04,27,16,42,15.30
2018,04,27,16,43,15.30
2018,04,27,16,44,15.30
2018,04,27,16,45,15.30
2018,04,27,16,46,15.30
2018,04,27,16,47,15.30
2018,04,27,16,48,15.30
2018,04,27,16,49,15.40
2018,04,27,16,50,15.40
2018,04,27,16,51,15.40
2018,04,27,16,52,15.40
2018,04,27,16,53,15.40
2018,04,27,16,54,15.40
2018,04,27,16,55,15.40
2018,04,27,16,56,15.40
2018,04,27,16,57,15.40
2018,04,27,16,58,15.30
2018,04,27,16,59,15.30
2018,04,27,17,00,15.30
2018,04,27,17,01,15.30
2018,04,27,17,02,15.30
2018,04,27,17,03,15.30
2018,04,27,17,04,15.30
2018,04,27,17,05,15.30
2018,04,27,17,06,15.30
2018,04,27,17,07,15.30
2018,04,27,17,08,15.40
2018,04,27,17,09,15.40
2018,04,27,17,10,15.40
2018,04,27,17,11,15.40
2018,04,27,17,12,15.50
2018,04,27,17,13,15.50
2018,04,27,17,14,15.50
2018,04,27,17,15,15.50
2018,04,27,17,16,15.50
2018,04,27,17,17,15.50
2018,04,27,17,18,15.50
2018,04,27,17,19,15.60
2018,04,27,17,20,15.60
2018,04,27,17,21,15.60
2018,04,27,17,22,15.70
2018,04,27,17,23,15.70
2018,04,27,17,24,15.70
2018,04,27,17,25,15.70
2018,04,27,17,26,15.60
2018,04,27,17,27,15.60
2018,04,27,17,28,15.70
2018,04,27,17,29,15.70
2018,04,27,17,30,15.70
2018,04,27,17,31,15.70
2018,04,27,17,32,15.60
2018,04,27,17,33,15.60